GW4712 Weather Reports


time (UTC)temp
F
wind
direction
speed
knots
gust
knots
rain 1hr
in
rain 24hr
in
rain mn
in
humidity
%
barometer
mb
20260505214206 75 259 1.7 3.5 0.00 0.00 0.00 42 1009.8
20260505213703 74 179 1.7 7.0 0.00 0.00 0.00 41 1009.9
20260505213200 74 340 3.5 11.3 0.00 0.00 0.00 41 1010.0
20260505212655 74 249 6.1 7.8 0.00 0.00 0.00 41 1010.2
20260505212153 75 262 5.2 6.1 0.00 0.00 0.00 40 1010.1
20260505211650 75 248 6.1 8.7 0.00 0.00 0.00 40 1010.4
20260505211147 74 253 4.3 7.0 0.00 0.00 0.00 42 1010.3
20260505210644 74 261 4.3 9.6 0.00 0.00 0.00 43 1010.1
20260505210140 75 313 1.7 5.2 0.00 0.00 0.00 42 1010.4
20260505205638 75 323 9.6 11.3 0.00 0.00 0.00 40 1010.2
20260505205136 76 223 5.2 6.1 0.00 0.00 0.00 40 1010.1
20260505204627 76 215 2.6 7.0 0.00 0.00 0.00 41 1010.2
20260505204125 75 242 3.5 8.7 0.00 0.00 0.00 42 1010.5
20260505203621 75 240 1.7 13.0 0.00 0.00 0.00 41 1010.6
20260505203118 75 320 7.0 7.8 0.00 0.00 0.00 42 1010.2
20260505202614 75 307 2.6 11.3 0.00 0.00 0.00 41 1010.3
20260505202110 75 302 5.2 8.7 0.00 0.00 0.00 41 1010.4
20260505201607 75 321 5.2 13.9 0.00 0.00 0.00 42 1010.2
20260505201105 75 307 2.6 11.3 0.00 0.00 0.00 41 1010.1
20260505200602 75 281 5.2 11.3 0.00 0.00 0.00 41 1010.2
20260505200059 75 261 6.1 9.6 0.00 0.00 0.00 41 1010.4
20260505195555 75 246 11.3 14.8 0.00 0.00 0.00 40 1010.6
20260505195053 75 242 5.2 11.3 0.00 0.00 0.00 43 1010.5
20260505194550 75 280 6.1 20.0 0.00 0.00 0.00 43 1010.4
20260505194045 75 293 4.3 9.6 0.00 0.00 0.00 43 1010.5
20260505193543 75 264 6.1 8.7 0.00 0.00 0.00 43 1010.4
20260505193040 75 224 6.1 9.6 0.00 0.00 0.00 40 1010.7
20260505192538 75 299 7.0 14.8 0.00 0.00 0.00 42 1010.6
20260505192036 75 313 5.2 7.8 0.00 0.00 0.00 42 1010.5
20260505191534 75 254 4.3 8.7 0.00 0.00 0.00 42 1010.6
20260505191031 75 226 3.5 5.2 0.00 0.00 0.00 45 1010.5
20260505190526 75 268 3.5 6.1 0.00 0.00 0.00 44 1010.4
20260505190022 76 330 9.6 13.9 0.00 0.00 0.00 43 1010.7
20260505185519 75 299 4.3 13.0 0.00 0.00 0.00 44 1010.6
20260505185015 76 305 1.7 6.1 0.00 0.00 0.00 44 1010.3
20260505184513 76 311 2.6 6.1 0.00 0.00 0.00 41 1010.6
20260505184009 76 206 6.1 9.6 0.00 0.00 0.00 42 1010.7
20260505183506 76 313 3.5 13.0 0.00 0.00 0.00 44 1011.1
20260505183003 76 203 4.3 13.9 0.00 0.00 0.00 43 1010.7
20260505182500 76 270 5.2 13.0 0.00 0.00 0.00 43 1011.1
20260505181955 76 207 7.8 9.6 0.00 0.00 0.00 42 1010.8
20260505181453 76 241 1.7 9.6 0.00 0.00 0.00 40 1010.8
20260505180950 76 225 9.6 13.9 0.00 0.00 0.00 40 1010.7
20260505180446 76 132 3.5 9.6 0.00 0.00 0.00 39 1011.1
20260505175943 76 233 9.6 13.0 0.00 0.00 0.00 41 1010.6
20260505175439 76 316 5.2 13.0 0.00 0.00 0.00 42 1010.9
20260505174936 75 311 3.5 13.9 0.00 0.00 0.00 43 1010.5
20260505174433 76 282 4.3 12.2 0.00 0.00 0.00 43 1010.7
20260505173929 75 325 7.0 9.6 0.00 0.00 0.00 45 1010.7
20260505173426 76 244 4.3 8.7 0.00 0.00 0.00 42 1010.5
20260505172923 76 241 3.5 11.3 0.00 0.00 0.00 44 1010.7
20260505172421 76 321 12.2 16.5 0.00 0.00 0.00 43 1010.7
20260505171920 76 255 10.4 12.2 0.00 0.00 0.00 42 1011.2
20260505171417 76 314 7.0 11.3 0.00 0.00 0.00 43 1011.1
20260505170914 76 187 5.2 7.0 0.00 0.00 0.00 43 1011.1
20260505170411 76 243 1.7 7.8 0.00 0.00 0.00 44 1010.9
20260505165906 76 203 7.8 15.6 0.00 0.00 0.00 44 1011.4
20260505165402 76 183 3.5 8.7 0.00 0.00 0.00 43 1010.9
20260505164857 76 214 4.3 7.8 0.00 0.00 0.00 45 1011.3
20260505164354 76 310 3.5 8.7 0.00 0.00 0.00 43 1011.5
20260505163853 75 255 3.5 9.6 0.00 0.00 0.00 43 1011.4
20260505163351 75 254 3.5 12.2 0.00 0.00 0.00 46 1011.4
20260505162850 75 259 5.2 7.0 0.00 0.00 0.00 45 1011.4
20260505162345 75 276 7.0 7.8 0.00 0.00 0.00 45 1011.4
20260505161843 74 301 3.5 12.2 0.00 0.00 0.00 47 1011.3
20260505161339 74 272 4.3 6.1 0.00 0.00 0.00 44 1011.5
20260505160837 74 257 7.8 9.6 0.00 0.00 0.00 43 1011.8
20260505160335 74 313 12.2 15.6 0.00 0.00 0.00 46 1011.4
20260505153314 73 317 7.8 16.5 0.00 0.00 0.00 48 1011.8
20260505152811 74 309 12.2 18.2 0.00 0.00 0.00 47 1011.7
20260505152308 73 248 7.0 12.2 0.00 0.00 0.00 47 1012.1
20260505151807 73 241 7.0 9.6 0.00 0.00 0.00 47 1011.9
20260505151305 73 264 5.2 7.8 0.00 0.00 0.00 50 1011.8
20260505150802 73 298 7.0 15.6 0.00 0.00 0.00 50 1011.4
20260505150259 73 174 5.2 7.8 0.00 0.00 0.00 48 1011.6
20260505140229 71 263 3.5 6.1 0.00 0.00 0.00 50 1012.0
20260505130153 68 220 2.6 5.2 0.00 0.00 0.00 55 1011.9
20260505124642 67 247 2.6 2.6 0.00 0.00 0.00 55 1012.0
20260505124139 67 240 2.6 3.5 0.00 0.00 0.00 55 1012.0
20260505123635 67 170 2.6 3.5 0.00 0.00 0.00 56 1011.9
20260505123132 67 268 0.9 1.7 0.00 0.00 0.00 56 1012.0
20260505122628 66 149 0.9 2.6 0.00 0.00 0.00 57 1012.0
20260505122126 66 164 0.9 2.6 0.00 0.00 0.00 57 1012.0
20260505121622 66 313 0.0 0.9 0.00 0.00 0.00 58 1012.1
20260505121119 65 262 0.9 0.9 0.00 0.00 0.00 60 1011.8
20260505120615 64 246 0.0 0.9 0.00 0.00 0.00 62 1011.9
20260505120111 64 177 0.0 1.7 0.00 0.00 0.00 66 1012.2
20260505115605 64 110 0.9 2.6 0.00 0.00 0.00 61 1011.9
20260505115103 65 261 1.7 3.5 0.00 0.00 0.00 61 1012.2
20260505114600 64 233 0.9 1.7 0.00 0.00 0.00 64 1012.0
20260505114056 63 99 0.9 1.7 0.00 0.00 0.00 66 1011.9
20260505113553 64 224 0.0 0.9 0.00 0.00 0.00 65 1012.0
20260505113050 64 275 0.0 1.7 0.00 0.00 0.00 61 1011.7
20260505112546 63 74 0.0 2.6 0.00 0.00 0.00 61 1011.7
20260505112045 63 338 0.0 0.9 0.00 0.00 0.00 64 1011.9
20260505111543 62 279 0.0 0.0 0.00 0.00 0.00 66 1012.0
20260505111040 62 268 0.9 0.9 0.00 0.00 0.00 67 1012.0
20260505110536 62 113 0.9 1.7 0.00 0.00 0.00 71 1011.7
20260505102009 60 69 0.0 1.7 0.00 0.00 0.00 69 1011.6
20260505101507 61 198 0.9 1.7 0.00 0.00 0.00 69 1011.3
20260505101003 61 295 0.0 0.0 0.00 0.00 0.00 69 1011.4
20260505100500 59 313 0.0 1.7 0.00 0.00 0.00 71 1011.3
20260505095957 58 187 0.0 0.0 0.00 0.00 0.00 77 1011.1
20260505095453 58 257 0.9 0.9 0.00 0.00 0.00 77 1011.2
20260505094949 58 233 0.0 0.9 0.00 0.00 0.00 79 1010.9
20260505094446 58 100 0.9 1.7 0.00 0.00 0.00 74 1010.8
20260505093943 58 68 0.0 5.2 0.00 0.00 0.00 77 1010.8
20260505093439 57 165 0.0 0.9 0.00 0.00 0.00 79 1010.7
20260505092937 57 231 1.7 2.6 0.00 0.00 0.00 72 1010.8
20260505092434 58 169 0.0 0.0 0.00 0.00 0.00 78 1010.7
20260505091932 58 170 0.9 1.7 0.00 0.00 0.00 76 1010.6
20260505091429 58 237 0.9 1.7 0.00 0.00 0.00 78 1010.5
20260505090927 59 306 0.9 0.9 0.00 0.00 0.00 75 1010.6
20260505090425 60 151 0.0 0.0 0.00 0.00 0.00 72 1010.5
20260505085922 61 260 0.0 0.0 0.00 0.00 0.00 69 1010.4
20260505085420 62 187 1.7 1.7 0.00 0.00 0.00 67 1010.5
20260505084918 63 183 1.7 3.5 0.00 0.00 0.00 65 1010.6
20260505084416 61 249 0.0 6.1 0.00 0.00 0.00 63 1010.3
20260505083914 59 162 0.0 0.9 0.00 0.00 0.00 72 1010.4
20260505083411 59 162 1.7 1.7 0.00 0.00 0.00 74 1010.4
20260505082907 59 229 0.9 1.7 0.00 0.00 0.00 74 1010.3
20260505082403 61 340 0.0 1.7 0.00 0.00 0.00 70 1010.3
20260505081900 63 322 0.0 1.7 0.00 0.00 0.00 65 1010.1
20260505081356 63 251 0.9 1.7 0.00 0.00 0.00 62 1010.1
20260505080853 62 311 0.9 2.6 0.00 0.00 0.00 66 1010.1
20260505080349 60 150 0.0 2.6 0.00 0.00 0.00 75 1010.2
20260505075845 58 344 0.0 0.9 0.00 0.00 0.00 76 1009.9
20260505075342 60 264 1.7 2.6 0.00 0.00 0.00 74 1009.9
20260505074839 60 210 0.9 6.1 0.00 0.00 0.00 75 1010.0
20260505074336 56 222 0.9 6.1 0.00 0.00 0.00 76 1010.0
20260505073833 55 311 0.0 0.0 0.00 0.00 0.00 87 1009.8
20260505073331 54 312 0.0 0.0 0.00 0.00 0.00 86 1010.0
20260505072828 55 312 0.9 2.6 0.00 0.00 0.00 87 1010.1
20260505072324 55 294 0.0 0.0 0.00 0.00 0.00 86 1010.1
20260505071820 55 299 0.0 0.0 0.00 0.00 0.00 85 1010.2
20260505071317 55 296 0.0 0.0 0.00 0.00 0.00 86 1010.1
20260505070815 54 2 0.0 0.0 0.00 0.00 0.00 88 1009.9
20260505070311 53 233 0.0 0.0 0.00 0.00 0.00 93 1010.0
20260505065806 52 304 0.0 0.0 0.00 0.00 0.00 95 1009.8
20260505065304 52 300 0.0 0.0 0.00 0.00 0.00 95 1010.0
20260505064800 52 256 0.0 1.7 0.00 0.00 0.00 95 1009.9
20260505064258 51 290 0.0 0.9 0.00 0.00 0.00 96 1009.9
20260505063755 51 269 0.0 0.9 0.00 0.00 0.00 96 1010.1
20260505063252 52 268 0.0 0.0 0.00 0.00 0.00 96 1010.2
20260505062748 51 268 0.0 0.0 0.00 0.00 0.00 96 1010.1
20260505062246 51 23 0.0 0.0 0.00 0.00 0.00 97 1010.1
20260505061742 51 23 0.9 0.9 0.00 0.00 0.00 97 1010.1
20260505061240 51 23 0.0 0.0 0.00 0.00 0.00 97 1010.1
20260505060737 51 23 0.9 1.7 0.00 0.00 0.00 97 1010.1
20260505060235 51 267 0.0 0.9 0.00 0.00 0.00 97 1010.3
20260505055729 51 261 0.0 0.9 0.00 0.00 0.00 97 1010.3
20260505055226 51 342 0.9 1.7 0.00 0.00 0.00 96 1010.3
20260505054724 51 203 0.9 0.9 0.00 0.00 0.00 97 1010.2
20260505054216 52 204 0.9 0.9 0.00 0.00 0.00 97 1010.3
20260505053714 51 203 0.0 1.7 0.00 0.00 0.00 97 1010.3
20260505053210 51 203 0.0 0.0 0.00 0.00 0.00 97 1010.3
20260505052708 51 203 0.0 0.0 0.00 0.00 0.00 97 1010.2
20260505052204 51 203 0.0 0.0 0.00 0.00 0.00 97 1010.3
20260505051701 51 203 0.0 0.0 0.00 0.00 0.00 97 1010.1
20260505051159 51 203 0.0 0.0 0.00 0.00 0.00 97 1010.2
20260505050656 51 203 0.0 0.0 0.00 0.00 0.00 97 1010.0
20260505050156 51 203 0.0 0.0 0.00 0.00 0.00 97 1010.1
20260505041625 51 203 0.0 0.0 0.00 0.00 0.00 97 1009.7
20260505041123 51 203 0.0 0.0 0.00 0.00 0.00 97 1009.7
20260505040619 51 203 0.0 0.0 0.00 0.00 0.00 97 1009.8
20260505040117 51 203 0.0 0.0 0.00 0.00 0.00 96 1009.8
20260505035613 51 203 0.0 0.9 0.00 0.00 0.00 96 1009.6
20260505035109 51 203 0.0 0.0 0.00 0.00 0.00 96 1009.7
20260505034606 51 203 0.0 0.0 0.00 0.00 0.00 96 1009.6
20260505034103 51 203 0.0 0.0 0.00 0.00 0.00 96 1009.5
20260505033559 51 203 0.0 0.0 0.00 0.00 0.00 96 1009.7
20260505033058 51 203 0.0 0.0 0.00 0.00 0.00 96 1009.8
20260505032555 51 203 0.0 0.0 0.00 0.00 0.00 96 1009.8
20260505032051 51 203 0.0 0.0 0.00 0.00 0.00 96 1009.6
20260505031549 52 203 0.0 0.0 0.00 0.00 0.00 96 1009.6
20260505031045 52 203 0.0 0.0 0.00 0.00 0.00 95 1009.6
20260505030542 52 203 0.0 0.0 0.00 0.00 0.00 95 1009.6
20260505030038 52 203 0.0 0.0 0.00 0.00 0.00 96 1009.7
20260505025533 52 203 0.0 0.0 0.00 0.00 0.00 95 1009.8
20260505025033 52 203 0.0 0.0 0.00 0.00 0.00 95 1009.8
20260505024529 52 203 0.0 0.0 0.00 0.00 0.00 95 1009.8
20260505024026 52 203 0.0 0.0 0.00 0.00 0.00 95 1009.7
20260505023523 52 203 0.0 0.0 0.00 0.00 0.00 95 1009.8
20260505023021 53 203 0.0 0.0 0.00 0.00 0.00 95 1009.6
20260505022519 53 203 0.0 0.0 0.00 0.00 0.00 94 1009.4
20260505022016 53 203 0.0 0.9 0.00 0.00 0.00 94 1009.6
20260505021513 53 203 0.0 0.0 0.00 0.00 0.00 93 1009.6
20260505021009 53 203 0.0 0.0 0.00 0.00 0.00 93 1009.6
20260505020509 53 203 0.0 0.0 0.00 0.00 0.00 93 1009.6
20260505020006 53 203 0.0 0.0 0.00 0.00 0.00 93 1009.6
20260505015503 54 203 0.0 0.0 0.00 0.00 0.00 92 1009.6
20260505015000 54 203 0.0 0.0 0.00 0.00 0.00 92 1009.6
20260505014457 54 203 0.0 0.0 0.00 0.00 0.00 91 1009.6
20260505013954 55 203 0.0 0.0 0.00 0.00 0.00 91 1009.6
20260505013451 55 203 0.0 0.0 0.00 0.00 0.00 90 1009.4
20260505012948 55 203 0.0 0.0 0.00 0.00 0.00 88 1009.6
20260505012446 55 203 0.0 0.0 0.00 0.00 0.00 88 1009.7
20260505011943 56 203 0.0 0.0 0.00 0.00 0.00 87 1009.6
20260505011439 56 203 0.0 0.9 0.00 0.00 0.00 87 1009.6
20260505010936 56 203 0.0 0.9 0.00 0.00 0.00 86 1009.6
20260505010432 57 203 0.0 0.0 0.00 0.00 0.00 87 1009.5
20260505005928 57 203 0.0 0.0 0.00 0.00 0.00 86 1009.4
20260505005425 57 203 0.9 0.9 0.00 0.00 0.00 85 1009.5
20260505004922 58 203 0.0 0.0 0.00 0.00 0.00 85 1009.5
20260505004418 58 203 0.0 0.0 0.00 0.00 0.00 85 1009.7
20260505003915 59 203 0.0 0.0 0.00 0.00 0.00 84 1009.7
20260505003413 60 203 0.9 0.9 0.00 0.00 0.00 81 1009.8
20260505002909 60 203 0.0 0.0 0.00 0.00 0.00 80 1009.7
20260505002405 61 203 0.9 0.9 0.00 0.00 0.00 78 1009.7
20260505001904 62 203 0.0 0.0 0.00 0.00 0.00 78 1009.7
20260505001401 62 203 0.0 0.0 0.00 0.00 0.00 75 1009.6
20260505000858 63 203 0.0 0.0 0.00 0.00 0.00 75 1009.7
20260505000358 64 203 0.0 0.9 0.00 0.00 0.00 72 1009.7
20260504235852 70 250 0.9 0.9 0.00 0.00 0.00 60 1009.7
20260504235349 70 250 0.9 0.9 0.00 0.00 0.00 60 1009.9
20260504234845 70 302 1.7 1.7 0.00 0.00 0.00 52 1009.7
20260504234343 71 254 0.9 1.7 0.00 0.00 0.00 51 1009.6
20260504233840 71 324 2.6 3.5 0.00 0.00 0.00 50 1009.8
20260504233335 72 255 1.7 1.7 0.00 0.00 0.00 49 1009.9
20260504232833 72 236 0.9 1.7 0.00 0.00 0.00 49 1009.8
20260504232330 72 286 0.0 0.0 0.00 0.00 0.00 49 1009.9
20260504231826 71 248 1.7 1.7 0.00 0.00 0.00 49 1010.0
20260504231323 71 306 3.5 5.2 0.00 0.00 0.00 50 1009.9
20260504230819 71 313 1.7 1.7 0.00 0.00 0.00 52 1009.9
20260504230317 71 309 0.9 2.6 0.00 0.00 0.00 50 1009.9
20260504225816 71 260 1.7 5.2 0.00 0.00 0.00 50 1010.0
20260504225311 71 301 3.5 3.5 0.00 0.00 0.00 47 1009.9
20260504224809 71 96 1.7 5.2 0.00 0.00 0.00 48 1010.0
20260504224306 71 314 4.3 7.0 0.00 0.00 0.00 50 1010.1
20260504223802 71 256 4.3 5.2 0.00 0.00 0.00 48 1010.0
20260504223258 71 271 3.5 7.0 0.00 0.00 0.00 50 1009.9
20260504222755 71 300 2.6 9.6 0.00 0.00 0.00 48 1010.2
20260504222252 71 281 3.5 5.2 0.00 0.00 0.00 48 1009.7
20260504221750 72 276 0.9 2.6 0.00 0.00 0.00 48 1009.6
20260504221247 72 198 1.7 11.3 0.00 0.00 0.00 49 1009.8
20260504220743 72 268 3.5 8.7 0.00 0.00 0.00 47 1009.8
20260504220240 72 247 1.7 5.2 0.00 0.00 0.00 48 1009.9
20260504215737 72 313 5.2 7.8 0.00 0.00 0.00 50 1009.9
20260504215234 72 279 2.6 5.2 0.00 0.00 0.00 49 1009.9
20260504214730 72 243 4.3 7.8 0.00 0.00 0.00 47 1010.0